Location: Trondheim
(63.4170°N, 10.4170°E)
Time: 15:35:18
(UTC+02:00)

ISS - Visible Passes

Search period start: 16 May 2021 00:00
Search period end: 26 May 2021 00:00
Orbit: 417 x 422 km, 51.6° (Epoch: 15 May)

Date Brightness Start Highest point End Pass type
(mag) Time Alt. Az. Time Alt. Az. Time Alt. Az.
16 May -1.8 01:19:00 10° SSW 01:20:18 12° S 01:21:35 10° SSE visible
17 May -1.8 00:31:50 10° SSW 00:33:06 12° S 00:34:23 10° SSE visible
18 May -1.6 01:20:53 10° SSW 01:21:38 11° SSW 01:22:23 10° S visible
19 May -1.7 00:33:18 10° SSW 00:34:27 11° S 00:35:35 10° SSE visible
